| time (UTC) | temp F | wind direction | speed knots | gust knots | rain 1hr in | rain 24hr in | rain mn in | humidity % | barometer mb |
| 20260505011558 | 70 | 168 | 7.8 | 7.8 | 0.00 | 0.00 | 0.00 | 49 | 981.6 |
| 20260505011058 | 70 | 175 | 8.7 | 8.7 | 0.00 | 0.00 | 0.00 | 49 | 981.6 |
| 20260505010558 | 71 | 172 | 7.8 | 7.8 | 0.00 | 0.00 | 0.00 | 49 | 981.7 |
| 20260505010058 | 71 | 167 | 9.6 | 9.6 | 0.00 | 0.00 | 0.00 | 48 | 981.7 |
| 20260505005558 | 71 | 167 | 7.8 | 7.8 | 0.00 | 0.00 | 0.00 | 48 | 981.7 |
| 20260505005058 | 71 | 171 | 7.8 | 7.8 | 0.00 | 0.00 | 0.00 | 48 | 981.6 |
| 20260505004558 | 71 | 173 | 8.7 | 8.7 | 0.00 | 0.00 | 0.00 | 48 | 981.7 |
| 20260505004058 | 71 | 179 | 8.7 | 8.7 | 0.00 | 0.00 | 0.00 | 47 | 981.6 |
| 20260505003558 | 72 | 176 | 8.7 | 8.7 | 0.00 | 0.00 | 0.00 | 47 | 981.7 |
| 20260505003058 | 72 | 167 | 9.6 | 9.6 | 0.00 | 0.00 | 0.00 | 47 | 981.6 |
| 20260505002558 | 72 | 167 | 9.6 | 9.6 | 0.00 | 0.00 | 0.00 | 46 | 981.6 |
| 20260505002058 | 73 | 184 | 9.6 | 9.6 | 0.00 | 0.00 | 0.00 | 46 | 981.5 |
| 20260505001558 | 73 | 191 | 8.7 | 8.7 | 0.00 | 0.00 | 0.00 | 45 | 981.5 |
| 20260505001058 | 73 | 173 | 7.8 | 7.8 | 0.00 | 0.00 | 0.00 | 45 | 981.5 |
| 20260505000558 | 73 | 178 | 15.6 | 15.6 | 0.00 | 0.00 | 0.00 | 45 | 981.4 |
| 20260505000059 | 74 | 186 | 6.1 | 6.1 | 0.00 | 0.00 | 0.00 | 44 | 981.3 |
| 20260504235558 | 74 | 188 | 9.6 | 9.6 | 0.00 | 0.00 | 0.00 | 44 | 981.4 |
| 20260504235058 | 74 | 178 | 9.6 | 9.6 | 0.00 | 0.00 | 0.00 | 44 | 981.5 |
| 20260504234558 | 74 | 165 | 10.4 | 10.4 | 0.00 | 0.00 | 0.00 | 43 | 981.4 |
| 20260504234058 | 74 | 158 | 10.4 | 10.4 | 0.00 | 0.00 | 0.00 | 43 | 981.4 |
| 20260504233558 | 74 | 179 | 16.5 | 16.5 | 0.00 | 0.00 | 0.00 | 43 | 981.5 |
| 20260504233058 | 74 | 188 | 9.6 | 9.6 | 0.00 | 0.00 | 0.00 | 43 | 981.4 |
| 20260504232558 | 75 | 171 | 12.2 | 12.2 | 0.00 | 0.00 | 0.00 | 42 | 981.4 |
| 20260504232058 | 75 | 173 | 10.4 | 10.4 | 0.00 | 0.00 | 0.00 | 42 | 981.3 |
| 20260504231558 | 75 | 153 | 13.9 | 13.9 | 0.00 | 0.00 | 0.00 | 42 | 981.4 |
| 20260504231058 | 75 | 177 | 7.0 | 7.0 | 0.00 | 0.00 | 0.00 | 42 | 981.5 |
| 20260504230558 | 75 | 184 | 13.0 | 13.0 | 0.00 | 0.00 | 0.00 | 42 | 981.4 |
| 20260504230058 | 75 | 187 | 13.9 | 13.9 | 0.00 | 0.00 | 0.00 | 42 | 981.4 |
| 20260504225558 | 75 | 182 | 11.3 | 11.3 | 0.00 | 0.00 | 0.00 | 42 | 981.4 |
| 20260504225058 | 75 | 170 | 7.8 | 7.8 | 0.00 | 0.00 | 0.00 | 42 | 981.3 |
| 20260504224558 | 75 | 190 | 13.0 | 13.0 | 0.00 | 0.00 | 0.00 | 41 | 981.5 |
| 20260504224058 | 75 | 207 | 12.2 | 12.2 | 0.00 | 0.00 | 0.00 | 41 | 981.5 |
| 20260504223558 | 75 | 187 | 7.8 | 7.8 | 0.00 | 0.00 | 0.00 | 42 | 981.6 |
| 20260504223058 | 75 | 186 | 12.2 | 12.2 | 0.00 | 0.00 | 0.00 | 42 | 981.5 |
| 20260504222558 | 75 | 179 | 12.2 | 12.2 | 0.00 | 0.00 | 0.00 | 42 | 981.6 |
| 20260504221558 | 75 | 177 | 17.4 | 17.4 | 0.00 | 0.00 | 0.00 | 41 | 981.7 |
| 20260504221058 | 75 | 168 | 14.8 | 14.8 | 0.00 | 0.00 | 0.00 | 40 | 981.6 |
| 20260504220558 | 75 | 180 | 13.9 | 13.9 | 0.00 | 0.00 | 0.00 | 42 | 981.8 |
| 20260504220058 | 75 | 176 | 11.3 | 11.3 | 0.00 | 0.00 | 0.00 | 42 | 981.7 |
| 20260504215558 | 75 | 181 | 10.4 | 10.4 | 0.00 | 0.00 | 0.00 | 41 | 981.8 |
| 20260504215058 | 75 | 203 | 18.2 | 18.2 | 0.00 | 0.00 | 0.00 | 40 | 981.8 |
| 20260504214558 | 75 | 192 | 13.0 | 13.0 | 0.00 | 0.00 | 0.00 | 41 | 981.8 |
| 20260504214058 | 75 | 195 | 13.0 | 13.0 | 0.00 | 0.00 | 0.00 | 41 | 981.9 |
| 20260504213558 | 75 | 184 | 13.0 | 13.0 | 0.00 | 0.00 | 0.00 | 40 | 981.7 |
| 20260504213058 | 75 | 196 | 20.0 | 20.0 | 0.00 | 0.00 | 0.00 | 41 | 981.7 |
| 20260504212558 | 75 | 226 | 7.8 | 7.8 | 0.00 | 0.00 | 0.00 | 41 | 981.7 |
| 20260504212058 | 75 | 165 | 15.6 | 15.6 | 0.00 | 0.00 | 0.00 | 42 | 981.7 |
| 20260504211558 | 75 | 155 | 10.4 | 10.4 | 0.00 | 0.00 | 0.00 | 42 | 981.8 |
| 20260504211058 | 75 | 167 | 8.7 | 8.7 | 0.00 | 0.00 | 0.00 | 41 | 981.8 |
| 20260504210558 | 75 | 178 | 8.7 | 8.7 | 0.00 | 0.00 | 0.00 | 41 | 981.9 |
| 20260504210058 | 76 | 169 | 14.8 | 14.8 | 0.00 | 0.00 | 0.00 | 41 | 982.0 |
| 20260504205558 | 76 | 234 | 7.0 | 7.0 | 0.00 | 0.00 | 0.00 | 40 | 982.0 |
| 20260504205058 | 76 | 189 | 8.7 | 8.7 | 0.00 | 0.00 | 0.00 | 40 | 982.0 |
| 20260504204558 | 75 | 179 | 14.8 | 14.8 | 0.00 | 0.00 | 0.00 | 40 | 982.0 |
| 20260504204058 | 75 | 173 | 16.5 | 16.5 | 0.00 | 0.00 | 0.00 | 40 | 982.1 |
| 20260504203558 | 75 | 179 | 8.7 | 8.7 | 0.00 | 0.00 | 0.00 | 39 | 982.3 |
| 20260504203058 | 75 | 184 | 16.5 | 16.5 | 0.00 | 0.00 | 0.00 | 40 | 982.3 |
| 20260504202558 | 75 | 174 | 18.2 | 18.2 | 0.00 | 0.00 | 0.00 | 38 | 982.3 |
| 20260504202058 | 75 | 174 | 20.0 | 20.0 | 0.00 | 0.00 | 0.00 | 38 | 982.4 |
| 20260504201558 | 76 | 174 | 20.0 | 20.0 | 0.00 | 0.00 | 0.00 | 44 | 982.4 |
| 20260504201058 | 76 | 181 | 11.3 | 11.3 | 0.00 | 0.00 | 0.00 | 46 | 982.6 |
| 20260504200558 | 75 | 198 | 14.8 | 14.8 | 0.00 | 0.00 | 0.00 | 45 | 982.6 |
| 20260504200058 | 75 | 162 | 10.4 | 10.4 | 0.00 | 0.00 | 0.00 | 45 | 982.7 |
| 20260504195558 | 75 | 202 | 9.6 | 9.6 | 0.00 | 0.00 | 0.00 | 43 | 982.9 |
| 20260504195058 | 75 | 186 | 9.6 | 9.6 | 0.00 | 0.00 | 0.00 | 42 | 982.7 |
| 20260504194558 | 75 | 198 | 14.8 | 14.8 | 0.00 | 0.00 | 0.00 | 44 | 982.9 |
| 20260504194058 | 76 | 178 | 16.5 | 16.5 | 0.00 | 0.00 | 0.00 | 45 | 982.9 |
| 20260504193558 | 75 | 199 | 3.5 | 3.5 | 0.00 | 0.00 | 0.00 | 43 | 983.1 |
| 20260504193058 | 76 | 231 | 8.7 | 8.7 | 0.00 | 0.00 | 0.00 | 47 | 983.1 |
| 20260504192558 | 75 | 231 | 11.3 | 11.3 | 0.00 | 0.00 | 0.00 | 47 | 983.1 |
| 20260504192058 | 75 | 174 | 13.0 | 13.0 | 0.00 | 0.00 | 0.00 | 44 | 983.2 |
| 20260504191558 | 75 | 183 | 11.3 | 11.3 | 0.00 | 0.00 | 0.00 | 43 | 983.2 |
| 20260504191058 | 75 | 156 | 11.3 | 11.3 | 0.00 | 0.00 | 0.00 | 44 | 983.4 |
| 20260504190558 | 75 | 175 | 9.6 | 9.6 | 0.00 | 0.00 | 0.00 | 46 | 983.5 |
| 20260504190058 | 75 | 140 | 8.7 | 8.7 | 0.00 | 0.00 | 0.00 | 47 | 983.5 |
| 20260504185558 | 74 | 178 | 5.2 | 5.2 | 0.00 | 0.00 | 0.00 | 48 | 983.5 |
| 20260504185058 | 74 | 178 | 5.2 | 5.2 | 0.00 | 0.00 | 0.00 | 47 | 983.6 |
| 20260504184558 | 75 | 195 | 8.7 | 8.7 | 0.00 | 0.00 | 0.00 | 48 | 983.6 |
| 20260504184058 | 75 | 221 | 4.3 | 4.3 | 0.00 | 0.00 | 0.00 | 47 | 983.5 |
| 20260504183558 | 74 | 147 | 3.5 | 3.5 | 0.00 | 0.00 | 0.00 | 49 | 983.7 |
| 20260504183058 | 75 | 158 | 9.6 | 9.6 | 0.00 | 0.00 | 0.00 | 46 | 983.7 |
| 20260504182558 | 75 | 193 | 8.7 | 8.7 | 0.00 | 0.00 | 0.00 | 48 | 983.7 |
| 20260504182058 | 74 | 233 | 13.9 | 13.9 | 0.00 | 0.00 | 0.00 | 48 | 983.8 |
| 20260504181558 | 74 | 250 | 4.3 | 4.3 | 0.00 | 0.00 | 0.00 | 50 | 983.9 |
| 20260504181058 | 74 | 204 | 12.2 | 12.2 | 0.00 | 0.00 | 0.00 | 49 | 983.8 |
| 20260504180558 | 73 | 186 | 5.2 | 5.2 | 0.00 | 0.00 | 0.00 | 50 | 983.9 |
| 20260504180059 | 74 | 205 | 11.3 | 11.3 | 0.00 | 0.00 | 0.00 | 50 | 984.0 |
| 20260504175558 | 73 | 290 | 4.3 | 4.3 | 0.00 | 0.00 | 0.00 | 49 | 984.0 |
| 20260504175058 | 73 | 198 | 10.4 | 10.4 | 0.00 | 0.00 | 0.00 | 48 | 984.2 |
| 20260504174558 | 74 | 217 | 12.2 | 12.2 | 0.00 | 0.00 | 0.00 | 51 | 984.1 |
| 20260504174058 | 74 | 213 | 9.6 | 9.6 | 0.00 | 0.00 | 0.00 | 48 | 984.2 |
| 20260504173558 | 74 | 189 | 7.0 | 7.0 | 0.00 | 0.00 | 0.00 | 51 | 984.3 |
| 20260504173058 | 74 | 225 | 14.8 | 14.8 | 0.00 | 0.00 | 0.00 | 50 | 984.3 |
| 20260504172558 | 73 | 167 | 5.2 | 5.2 | 0.00 | 0.00 | 0.00 | 51 | 984.4 |
| 20260504172058 | 73 | 205 | 10.4 | 10.4 | 0.00 | 0.00 | 0.00 | 51 | 984.5 |
| 20260504171558 | 73 | 245 | 7.8 | 7.8 | 0.00 | 0.00 | 0.00 | 51 | 984.6 |
| 20260504171058 | 73 | 231 | 12.2 | 12.2 | 0.00 | 0.00 | 0.00 | 50 | 984.7 |
| 20260504170558 | 73 | 226 | 8.7 | 8.7 | 0.00 | 0.00 | 0.00 | 51 | 984.7 |
| 20260504151058 | 68 | 224 | 11.3 | 11.3 | 0.00 | 0.00 | 0.00 | 58 | 985.6 |
| 20260504150558 | 68 | 218 | 15.6 | 15.6 | 0.00 | 0.00 | 0.00 | 58 | 985.7 |
| 20260504140841 | 64 | 239 | 10.4 | 10.4 | 0.00 | 0.00 | 0.00 | 64 | 985.9 |
| 20260504140341 | 64 | 196 | 9.6 | 9.6 | 0.00 | 0.00 | 0.00 | 64 | 985.8 |
| 20260504130759 | 61 | 189 | 14.8 | 14.8 | 0.00 | 0.00 | 0.00 | 65 | 985.6 |
| 20260504130300 | 61 | 167 | 9.6 | 9.6 | 0.00 | 0.00 | 0.00 | 65 | 985.6 |
| 20260504120300 | 58 | 174 | 15.6 | 15.6 | 0.00 | 0.00 | 0.00 | 65 | 985.0 |
| 20260504110300 | 58 | 184 | 12.2 | 12.2 | 0.00 | 0.00 | 0.00 | 63 | 984.9 |
| 20260504100300 | 58 | 186 | 12.2 | 12.2 | 0.00 | 0.00 | 0.00 | 61 | 984.7 |
| 20260504081759 | 58 | 183 | 12.2 | 12.2 | 0.00 | 0.00 | 0.00 | 60 | 984.8 |
| 20260504081259 | 58 | 188 | 16.5 | 16.5 | 0.00 | 0.00 | 0.00 | 59 | 984.7 |
| 20260504080800 | 59 | 181 | 13.0 | 13.0 | 0.00 | 0.00 | 0.00 | 59 | 984.6 |
| 20260504080259 | 59 | 187 | 13.0 | 13.0 | 0.00 | 0.00 | 0.00 | 59 | 984.6 |
| 20260504070259 | 59 | 181 | 20.0 | 20.0 | 0.00 | 0.00 | 0.00 | 58 | 985.4 |
| 20260504050300 | 61 | 180 | 13.0 | 13.0 | 0.00 | 0.00 | 0.00 | 54 | 986.2 |
| 20260504045759 | 61 | 179 | 12.2 | 12.2 | 0.00 | 0.00 | 0.00 | 54 | 986.2 |
| 20260504045259 | 61 | 181 | 13.0 | 13.0 | 0.00 | 0.00 | 0.00 | 54 | 986.2 |
| 20260504044800 | 61 | 175 | 13.0 | 13.0 | 0.00 | 0.00 | 0.00 | 54 | 986.1 |
| 20260504044300 | 61 | 167 | 13.9 | 13.9 | 0.00 | 0.00 | 0.00 | 53 | 986.3 |
| 20260504043759 | 61 | 180 | 13.0 | 13.0 | 0.00 | 0.00 | 0.00 | 53 | 986.4 |
| 20260504043259 | 61 | 174 | 13.0 | 13.0 | 0.00 | 0.00 | 0.00 | 53 | 986.3 |
| 20260504042759 | 61 | 174 | 13.0 | 13.0 | 0.00 | 0.00 | 0.00 | 53 | 986.5 |
| 20260504042259 | 61 | 179 | 13.0 | 13.0 | 0.00 | 0.00 | 0.00 | 53 | 986.4 |
| 20260504041759 | 61 | 161 | 12.2 | 12.2 | 0.00 | 0.00 | 0.00 | 53 | 986.4 |
| 20260504041259 | 61 | 171 | 13.0 | 13.0 | 0.00 | 0.00 | 0.00 | 52 | 986.4 |
| 20260504040759 | 61 | 179 | 13.0 | 13.0 | 0.00 | 0.00 | 0.00 | 53 | 986.5 |
| 20260504040300 | 61 | 184 | 13.0 | 13.0 | 0.00 | 0.00 | 0.00 | 53 | 986.5 |
| 20260504035800 | 61 | 174 | 12.2 | 12.2 | 0.00 | 0.00 | 0.00 | 53 | 986.6 |
| 20260504035259 | 60 | 175 | 12.2 | 12.2 | 0.00 | 0.00 | 0.00 | 54 | 986.6 |
| 20260504034759 | 60 | 174 | 10.4 | 10.4 | 0.00 | 0.00 | 0.00 | 54 | 986.7 |
| 20260504034259 | 60 | 178 | 13.0 | 13.0 | 0.00 | 0.00 | 0.00 | 54 | 986.7 |
| 20260504033759 | 60 | 177 | 9.6 | 9.6 | 0.00 | 0.00 | 0.00 | 55 | 986.6 |
| 20260504033300 | 60 | 176 | 10.4 | 10.4 | 0.00 | 0.00 | 0.00 | 55 | 986.7 |
| 20260504032759 | 60 | 169 | 10.4 | 10.4 | 0.00 | 0.00 | 0.00 | 55 | 986.6 |
| 20260504032300 | 60 | 175 | 10.4 | 10.4 | 0.00 | 0.00 | 0.00 | 54 | 986.8 |
| 20260504031759 | 60 | 172 | 11.3 | 11.3 | 0.00 | 0.00 | 0.00 | 54 | 986.8 |
| 20260504031259 | 60 | 174 | 9.6 | 9.6 | 0.00 | 0.00 | 0.00 | 54 | 987.0 |
| 20260504030800 | 61 | 165 | 8.7 | 8.7 | 0.00 | 0.00 | 0.00 | 53 | 986.8 |
| 20260504030259 | 61 | 168 | 8.7 | 8.7 | 0.00 | 0.00 | 0.00 | 51 | 986.9 |
| 20260504025759 | 62 | 174 | 9.6 | 9.6 | 0.00 | 0.00 | 0.00 | 51 | 986.9 |
| 20260504025300 | 62 | 175 | 8.7 | 8.7 | 0.00 | 0.00 | 0.00 | 51 | 987.0 |
| 20260504024759 | 61 | 176 | 7.8 | 7.8 | 0.00 | 0.00 | 0.00 | 52 | 986.9 |
| 20260504024300 | 61 | 176 | 6.1 | 6.1 | 0.00 | 0.00 | 0.00 | 52 | 986.8 |
| 20260504023759 | 62 | 168 | 8.7 | 8.7 | 0.00 | 0.00 | 0.00 | 51 | 986.8 |
| 20260504023259 | 61 | 170 | 7.8 | 7.8 | 0.00 | 0.00 | 0.00 | 52 | 986.9 |
| 20260504022800 | 62 | 172 | 7.8 | 7.8 | 0.00 | 0.00 | 0.00 | 52 | 987.0 |
| 20260504022300 | 62 | 181 | 7.8 | 7.8 | 0.00 | 0.00 | 0.00 | 52 | 986.9 |
| 20260504021759 | 62 | 174 | 7.0 | 7.0 | 0.00 | 0.00 | 0.00 | 51 | 986.9 |
| 20260504021300 | 62 | 178 | 10.4 | 10.4 | 0.00 | 0.00 | 0.00 | 50 | 986.8 |
| 20260504020759 | 62 | 179 | 9.6 | 9.6 | 0.00 | 0.00 | 0.00 | 49 | 986.8 |
| 20260504020259 | 62 | 184 | 9.6 | 9.6 | 0.00 | 0.00 | 0.00 | 49 | 986.8 |
| 20260504015759 | 62 | 183 | 7.8 | 7.8 | 0.00 | 0.00 | 0.00 | 50 | 986.7 |
| 20260504015259 | 62 | 182 | 7.8 | 7.8 | 0.00 | 0.00 | 0.00 | 50 | 986.7 |
| 20260504014759 | 62 | 180 | 7.8 | 7.8 | 0.00 | 0.00 | 0.00 | 50 | 986.7 |
| 20260504014300 | 63 | 176 | 7.8 | 7.8 | 0.00 | 0.00 | 0.00 | 50 | 986.5 |
| 20260504013800 | 63 | 179 | 8.7 | 8.7 | 0.00 | 0.00 | 0.00 | 50 | 986.5 |
| 20260504013259 | 63 | 180 | 9.6 | 9.6 | 0.00 | 0.00 | 0.00 | 50 | 986.4 |
| 20260504012759 | 63 | 179 | 9.6 | 9.6 | 0.00 | 0.00 | 0.00 | 50 | 986.4 |
| 20260504012259 | 63 | 181 | 7.8 | 7.8 | 0.00 | 0.00 | 0.00 | 49 | 986.4 |